This demonstration page uses our WeatherBlox Daily Observations layout. Learn more.

38.88101, -77.10428

Hourly Observations for April 22, 2018

Temp ( °F °C ) Dew Point ( °F °C ) Humidity (%) Winds ( mph kmh ) Pressure ( in mb ) Visibility ( mi km ) Precip ( " mm )
12:52 am 00:52 Mostly Cloudy 52 11.1 40 4.4 64 64 S 5 7 30.39 1029 10 16.0934 0 0
1:52 am 01:52 Cloudy 51 10.6 40 4.4 66 66 S 6 9 30.39 1029 10 16.0934 0 0
2:52 am 02:52 Cloudy 51 10.6 39 3.9 64 64 S 7 11 30.38 1029 10 16.0934 0 0
3:52 am 03:52 Cloudy 50 10 40 4.4 68 68 S 7 11 30.38 1029 10 16.0934 0 0
4:52 am 04:52 Mostly Cloudy 49 9.4 38 3.3 66 66 S 6 9 30.39 1029 10 16.0934 0 0
5:52 am 05:52 Mostly Cloudy 49 9.4 38 3.3 66 66 S 6 9 30.39 1029 10 16.0934 0 0
6:52 am 06:52 Cloudy 49 9.4 40 4.4 71 71 S 5 7 30.41 1030 10 16.0934 0 0
7:52 am 07:52 Mostly Cloudy 50 10 40 4.4 68 68 ENE 3 6 30.42 1030 10 16.0934 0 0
8:52 am 08:52 Mostly Cloudy 54 12.2 41 5 62 62 Calm 30.42 1030 10 16.0934 0 0
9:52 am 09:52 Mostly Cloudy 57 13.9 42 5.6 58 58 ENE 7 11 30.41 1030 10 16.0934 0 0
10:52 am 10:52 Mostly Cloudy 60 15.6 42 5.6 52 52 VRB 6 9 30.4 1030 10 16.0934 0 0
11:52 am 11:52 Mostly Cloudy 63 17.2 42 5.6 47 47 E 13 20 30.39 1029 10 16.0934 0 0
12:52 pm 12:52 Mostly Cloudy 65 18.3 41 5 42 42 E 7 11 30.37 1029 10 16.0934 0 0
1:52 pm 13:52 Mostly Cloudy 67 19.4 43 6.1 42 42 E 8 13 30.36 1028 10 16.0934 0 0
2:52 pm 14:52 Mostly Cloudy 65 18.3 44 6.7 47 47 ESE 13 20 30.35 1028 10 16.0934 0 0
3:52 pm 15:52 Mostly Cloudy 66 18.9 41 5 40 40 E 14 22 30.33 1027 10 16.0934 0 0
4:52 pm 16:52 Cloudy 64 17.8 41 5 43 43 SE 10 17 30.33 1027 10 16.0934 0 0
5:52 pm 17:52 Mostly Cloudy 63 17.2 38 3.3 40 40 SE 14 22 30.33 1027 10 16.0934 0 0
6:52 pm 18:52 Mostly Cloudy 61 16.1 38 3.3 43 43 ESE 9 15 30.33 1027 10 16.0934 0 0
7:52 pm 19:52 Mostly Cloudy 60 15.6 38 3.3 44 44 SSE 9 15 30.35 1028 10 16.0934 0 0
8:52 pm 20:52 Mostly Cloudy 57 13.9 39 3.9 51 51 ESE 7 11 30.37 1028 10 16.0934 0 0
9:52 pm 21:52 Partly Cloudy 56 13.3 39 3.9 53 53 SE 3 6 30.39 1029 10 16.0934 0 0
10:52 pm 22:52 Mostly Cloudy 55 12.8 38 3.3 53 53 ESE 6 9 30.4 1029 10 16.0934 0 0
11:52 pm 23:52 Cloudy 54 12.2 36 2.2 51 51 SE 5 7 30.41 1030 10 16.0934 0 0

Powered by AerisWeather